This is the latest recevied weather packets stored in our database for station/object N4PWG. If no packets are shown the sender has not sent any weather packets the latest 10 day(s).
| Time | Temp. | Humidity | Pressure | Rain* | Wind** | Luminosity | Snow |
|---|---|---|---|---|---|---|---|
| 1778028008 | 17.78° C | 99% | 1022.9 hPa | 0 mm | - | 0 W/m² | - |
| 1778027704 | 17.78° C | 99% | 1022.8 hPa | 0 mm | - | 0 W/m² | - |
| 1778027400 | 17.78° C | 99% | 1023.1 hPa | 0 mm | - | 1 W/m² | - |
| 1778027096 | 17.78° C | 99% | 1023.2 hPa | 1.78 mm | - | 0 W/m² | - |
| 1778026792 | 17.78° C | 99% | 1023.5 hPa | 1.78 mm | - | 0 W/m² | - |
| 1778026489 | 17.78° C | 99% | 1023.5 hPa | 3.05 mm | - | 1 W/m² | - |
| 1778026186 | 17.78° C | 99% | 1023.7 hPa | 3.05 mm | - | 0 W/m² | - |
| 1778025884 | 17.78° C | 99% | 1023.6 hPa | 1.27 mm | - | 1 W/m² | - |
| 1778025580 | 17.78° C | 99% | 1023.5 hPa | 1.27 mm | - | 2 W/m² | - |
| 1778025279 | 17.78° C | 99% | 1023.4 hPa | 0 mm | - | 2 W/m² | - |
| 1778024975 | 17.78° C | 99% | 1023.4 hPa | 0 mm | - | 3 W/m² | - |
| 1778024673 | 17.78° C | 99% | 1023.5 hPa | 0 mm | - | 4 W/m² | - |
| 1778024369 | 17.78° C | 99% | 1023.5 hPa | 0 mm | - | 6 W/m² | - |
| 1778024067 | 17.78° C | 99% | 1023.7 hPa | 0 mm | - | 7 W/m² | - |
| 1778023764 | 17.78° C | 99% | 1024 hPa | 0 mm | - | 7 W/m² | - |
| 1778023462 | 17.78° C | 99% | 1023.9 hPa | 1.78 mm | - | 5 W/m² | - |
| 1778023159 | 17.78° C | 99% | 1023.8 hPa | 1.78 mm | - | 6 W/m² | - |
| 1778022856 | 17.78° C | 99% | 1023.8 hPa | 0 mm | - | 6 W/m² | - |
| 1778022554 | 17.78° C | 99% | 1023.9 hPa | 0 mm | - | 6 W/m² | - |
| 1778022252 | 17.78° C | 99% | 1023.6 hPa | 1.78 mm | - | 6 W/m² | - |
| 1778021948 | 17.78° C | 99% | 1023.8 hPa | 1.78 mm | - | 8 W/m² | - |
| 1778020273 | 17.78° C | 99% | 1023.8 hPa | 0 mm | - | 16 W/m² | - |
| 1778019970 | 17.78° C | 99% | 1023.8 hPa | 0 mm | - | 16 W/m² | - |
| 1778019665 | 17.78° C | 99% | 1024 hPa | 1.27 mm | - | 19 W/m² | - |
| 1778019311 | 17.22° C | 99% | 1024.3 hPa | 0 mm | - | 19 W/m² | - |
* Rain latest hour (hover to see other rain measurements)
** Current wind speed in m/s (hover to see current wind gust speed)